This is the latest recevied weather packets stored in our database for station/object KB1RMA-4. If no packets are shown the sender has not sent any weather packets the latest 10 day(s).
| Time | Temp. | Humidity | Pressure | Rain* | Wind** | Luminosity | Snow |
|---|---|---|---|---|---|---|---|
| 1787667478 | 22.78° C | 58% | 1014.1 hPa | 0 mm | - | 713 W/m² | - |
| 1787667174 | 22.78° C | 56% | 1013.9 hPa | 0 mm | - | 719 W/m² | - |
| 1787666869 | 22.22° C | 60% | 1013.9 hPa | 0 mm | - | 709 W/m² | - |
| 1787666565 | 22.22° C | 58% | 1013.9 hPa | 0 mm | - | 423 W/m² | - |
| 1787666264 | 21.67° C | 61% | 1013.8 hPa | 0 mm | - | 524 W/m² | - |
| 1787665960 | 21.67° C | 63% | 1014 hPa | 0 mm | - | 135 W/m² | - |
| 1787665656 | 21.67° C | 63% | 1013.9 hPa | 0 mm | - | 141 W/m² | - |
| 1787665355 | 21.11° C | 64% | 1013.9 hPa | 0 mm | - | 189 W/m² | - |
| 1787665052 | 21.11° C | 64% | 1013.9 hPa | 0 mm | - | 66 W/m² | - |
| 1787664748 | 21.11° C | 65% | 1014 hPa | 0 mm | - | 425 W/m² | - |
| 1787664447 | 20.56° C | 66% | 1013.8 hPa | 0 mm | - | 56 W/m² | - |
| 1787664143 | 20.56° C | 65% | 1013.9 hPa | 0 mm | - | 62 W/m² | - |
| 1787663843 | 20.56° C | 66% | 1014 hPa | 0 mm | - | 53 W/m² | - |
| 1787663550 | 20.56° C | 66% | 1013.7 hPa | 0 mm | - | 54 W/m² | - |
| 1787663233 | 20.56° C | 67% | 1013.6 hPa | 0 mm | - | 52 W/m² | - |
| 1787662930 | 20.56° C | 68% | 1013.7 hPa | 0 mm | - | 51 W/m² | - |
| 1787662629 | 20° C | 68% | 1013.7 hPa | 0 mm | - | 52 W/m² | - |
| 1787662324 | 20° C | 68% | 1013.7 hPa | 0 mm | - | 75 W/m² | - |
| 1787662021 | 20° C | 67% | 1013.6 hPa | 0 mm | - | 75 W/m² | - |
| 1787661716 | 20° C | 67% | 1013.6 hPa | 0 mm | - | 50 W/m² | - |
| 1787661414 | 19.44° C | 67% | 1013.6 hPa | 0 mm | - | 49 W/m² | - |
| 1787661114 | 19.44° C | 69% | 1013.7 hPa | 0 mm | - | 64 W/m² | - |
| 1787660813 | 19.44° C | 70% | 1013.6 hPa | 0 mm | - | 51 W/m² | - |
| 1787660509 | 18.89° C | 71% | 1013.6 hPa | 0 mm | - | 50 W/m² | - |
| 1787660209 | 18.89° C | 72% | 1013.8 hPa | 0 mm | - | 69 W/m² | - |
* Rain latest hour (hover to see other rain measurements)
** Current wind speed in m/s (hover to see current wind gust speed)